We try to provide you some weather data from local stations. This data is not for flight planning purposes!

Weather at LROD – Oradea airport (8,5NM / 16km SW of our airfield)

Metar

Metar

LROD 070000Z AUTO 11006KT 9999 NCD 20/15 Q1018

TAF

TAF LROD 312030Z 3121/0203 CNL

Temperature

20

QNH

1018

Weather forcasts

Topweather forecast for Ineu, Bihor

Forcast from wetterzentrale.de

Wind animation

Ventusky

Sattelite images

Meteo Romania – Precipitation / Radar image

Meteo Romania – Cloud coverage

Sat 24 – Precipitation / Radar image

Sat 24 – Cloud coverage

Soaring forecast

RASP Forecast by Dragos

fcst24